SES-12

Last updated on Thu Nov 21 2024 00:02:44 GMT+0000 (Coordinated Universal Time)

1 43488U 18049A 24325.06577302 -.00000268 00000+0 00000+0 0 9990 2 43488 0.0413 64.1495 0002771 195.4064 278.7117 1.00270391 23665
UTC large
Height (km)
Speed (km/s)
/
Latitude / Longitude
Inclination (degrees)
Orbital Period (minutes)
Azimuth
Elevation
Range (km)
Doppler Factor

Next 0 passes for location: London (51.5072 / 0.1276)

Sorry there are no passes over London.